Time,TemperatureF,DewpointF,PressureIn,WindDirection,WindDirectionDegrees,WindSpeedMPH,WindSpeedGustMPH,Humidity,HourlyPrecipIn,Conditions,Clouds,dailyrainin,SoftwareType,DateUTC
2013-01-25 00:03:00,15.0,8.0,-100.00,East,100,3.0,6.0,72,-99.99,,,-99.99,,2013-01-25 05:03:00,
2013-01-25 00:12:00,16.0,8.0,-100.00,East,90,4.0,6.0,72,-99.99,,,-99.99,,2013-01-25 05:12:00,
2013-01-25 00:22:00,16.0,9.0,-100.00,East,95,3.0,6.0,73,-99.99,,,-99.99,,2013-01-25 05:22:00,
2013-01-25 00:32:00,16.0,9.0,-100.00,East,90,4.0,6.0,73,-99.99,,,-99.99,,2013-01-25 05:32:00,
2013-01-25 00:43:00,16.0,9.0,-100.00,East,95,4.0,7.0,73,-99.99,,,-99.99,,2013-01-25 05:43:00,
2013-01-25 00:52:00,16.0,9.0,-100.00,East,95,4.0,7.0,73,-99.99,,,-99.99,,2013-01-25 05:52:00,
2013-01-25 01:02:00,16.0,9.0,-100.00,ESE,105,6.0,7.0,73,-99.99,,,-99.99,,2013-01-25 06:02:00,
2013-01-25 01:11:00,16.0,9.0,-100.00,East,85,5.0,6.0,73,-99.99,,,-99.99,,2013-01-25 06:11:00,
2013-01-25 01:21:00,16.0,9.0,-100.00,East,85,5.0,7.0,73,-99.99,,,-99.99,,2013-01-25 06:21:00,
2013-01-25 01:32:00,16.0,9.0,-100.00,East,100,4.0,7.0,73,-99.99,,,-99.99,,2013-01-25 06:32:00,
2013-01-25 01:42:00,16.0,9.0,-100.00,East,90,5.0,6.0,74,-99.99,,,-99.99,,2013-01-25 06:42:00,
2013-01-25 01:52:00,16.0,9.0,-100.00,East,95,5.0,6.0,74,-99.99,,,-99.99,,2013-01-25 06:52:00,
2013-01-25 02:02:00,16.0,9.0,-100.00,East,80,5.0,7.0,74,-99.99,,,-99.99,,2013-01-25 07:02:00,
2013-01-25 02:11:00,16.0,10.0,-100.00,East,80,4.0,7.0,74,-99.99,,,-99.99,,2013-01-25 07:11:00,
2013-01-25 02:21:00,16.0,10.0,-100.00,East,85,5.0,6.0,74,-99.99,,,-99.99,,2013-01-25 07:21:00,
2013-01-25 02:32:00,16.0,10.0,-100.00,East,85,4.0,5.0,74,-99.99,,,-99.99,,2013-01-25 07:32:00,
2013-01-25 02:42:00,17.0,10.0,-100.00,East,80,4.0,5.0,74,-99.99,,,-99.99,,2013-01-25 07:42:00,
2013-01-25 02:51:00,17.0,10.0,-100.00,ESE,110,4.0,5.0,74,-99.99,,,-99.99,,2013-01-25 07:51:00,
2013-01-25 03:02:00,17.0,10.0,-100.00,East,90,4.0,6.0,74,-99.99,,,-99.99,,2013-01-25 08:02:00,
2013-01-25 03:11:00,17.0,10.0,-100.00,East,85,4.0,6.0,74,-99.99,,,-99.99,,2013-01-25 08:11:00,
2013-01-25 03:21:00,17.0,10.0,-100.00,ENE,70,3.0,6.0,74,-99.99,,,-99.99,,2013-01-25 08:21:00,
2013-01-25 03:32:00,17.0,11.0,-100.00,ENE,70,5.0,6.0,75,-99.99,,,-99.99,,2013-01-25 08:32:00,
2013-01-25 03:41:00,17.0,11.0,-100.00,East,85,4.0,7.0,76,-99.99,,,-99.99,,2013-01-25 08:41:00,
2013-01-25 03:52:00,17.0,11.0,-100.00,ENE,70,6.0,7.0,76,-99.99,,,-99.99,,2013-01-25 08:52:00,
2013-01-25 04:02:00,17.0,11.0,-100.00,East,90,6.0,7.0,76,-99.99,,,-99.99,,2013-01-25 09:02:00,
2013-01-25 04:11:00,17.0,10.0,-100.00,East,90,6.0,8.0,75,-99.99,,,-99.99,,2013-01-25 09:11:00,
2013-01-25 04:21:00,17.0,10.0,-100.00,East,85,4.0,7.0,75,-99.99,,,-99.99,,2013-01-25 09:21:00,
2013-01-25 04:32:00,17.0,10.0,-100.00,East,90,5.0,7.0,75,-99.99,,,-99.99,,2013-01-25 09:32:00,
2013-01-25 04:42:00,17.0,10.0,-100.00,East,95,7.0,9.0,74,-99.99,,,-99.99,,2013-01-25 09:42:00,
2013-01-25 04:51:00,17.0,10.0,-100.00,East,100,5.0,9.0,74,-99.99,,,-99.99,,2013-01-25 09:51:00,
2013-01-25 05:02:00,17.0,10.0,-100.00,East,90,6.0,11.0,73,-99.99,,,-99.99,,2013-01-25 10:02:00,
2013-01-25 05:12:00,17.0,10.0,-100.00,East,95,7.0,10.0,73,-99.99,,,-99.99,,2013-01-25 10:12:00,
2013-01-25 05:21:00,17.0,10.0,-100.00,East,90,7.0,9.0,73,-99.99,,,-99.99,,2013-01-25 10:21:00,
2013-01-25 05:32:00,17.0,10.0,-100.00,East,90,7.0,10.0,72,-99.99,,,-99.99,,2013-01-25 10:32:00,
2013-01-25 05:42:00,17.0,10.0,-100.00,East,90,6.0,10.0,71,-99.99,,,-99.99,,2013-01-25 10:42:00,
2013-01-25 05:51:00,17.0,9.0,-100.00,East,95,7.0,11.0,71,-99.99,,,-99.99,,2013-01-25 10:51:00,
2013-01-25 06:03:00,17.0,9.0,-100.00,East,90,6.0,11.0,70,-99.99,,,-99.99,,2013-01-25 11:03:00,
2013-01-25 06:11:00,17.0,9.0,-100.00,East,90,9.0,11.0,70,-99.99,,,-99.99,,2013-01-25 11:11:00,
2013-01-25 06:22:00,17.0,9.0,-100.00,East,90,9.0,11.0,70,-99.99,,,-99.99,,2013-01-25 11:22:00,
2013-01-25 06:33:00,17.0,9.0,-100.00,East,80,6.0,7.0,69,-99.99,,,-99.99,,2013-01-25 11:33:00,
2013-01-25 06:42:00,17.0,9.0,-100.00,East,100,7.0,10.0,68,-99.99,,,-99.99,,2013-01-25 11:42:00,
2013-01-25 06:52:00,18.0,9.0,-100.00,East,90,7.0,10.0,68,-99.99,,,-99.99,,2013-01-25 11:52:00,
2013-01-25 07:02:00,18.0,9.0,-100.00,East,95,4.0,7.0,68,-99.99,,,-99.99,,2013-01-25 12:02:00,
2013-01-25 07:12:00,18.0,9.0,-100.00,East,90,7.0,9.0,68,-99.99,,,-99.99,,2013-01-25 12:12:00,
2013-01-25 07:22:00,18.0,9.0,-100.00,East,90,6.0,9.0,68,-99.99,,,-99.99,,2013-01-25 12:22:00,
2013-01-25 07:32:00,18.0,9.0,-100.00,ESE,110,7.0,10.0,68,-99.99,,,-99.99,,2013-01-25 12:32:00,
2013-01-25 07:42:00,18.0,9.0,-100.00,ESE,110,7.0,10.0,68,-99.99,,,-99.99,,2013-01-25 12:42:00,
2013-01-25 07:53:00,18.0,9.0,-100.00,East,95,5.0,9.0,68,-99.99,,,-99.99,,2013-01-25 12:53:00,
2013-01-25 08:03:00,18.0,9.0,-100.00,ESE,105,4.0,9.0,68,-99.99,,,-99.99,,2013-01-25 13:03:00,
2013-01-25 08:12:00,18.0,9.0,-100.00,East,90,4.0,7.0,68,-99.99,,,-99.99,,2013-01-25 13:12:00,
2013-01-25 08:22:00,18.0,9.0,-100.00,East,85,5.0,9.0,68,-99.99,,,-99.99,,2013-01-25 13:22:00,
2013-01-25 08:32:00,18.0,9.0,-100.00,East,90,6.0,10.0,67,-99.99,,,-99.99,,2013-01-25 13:32:00,
2013-01-25 08:42:00,18.0,9.0,-100.00,East,85,6.0,9.0,67,-99.99,,,-99.99,,2013-01-25 13:42:00,
2013-01-25 08:52:00,18.0,9.0,-100.00,ENE,75,7.0,11.0,67,-99.99,,,-99.99,,2013-01-25 13:52:00,
2013-01-25 09:03:00,18.0,9.0,-100.00,East,95,8.0,11.0,66,-99.99,,,-99.99,,2013-01-25 14:03:00,
2013-01-25 09:12:00,18.0,8.0,-100.00,East,90,7.0,12.0,65,-99.99,,,-99.99,,2013-01-25 14:12:00,
2013-01-25 09:23:00,18.0,9.0,-100.00,ESE,105,9.0,13.0,65,-99.99,,,-99.99,,2013-01-25 14:23:00,
2013-01-25 09:33:00,18.0,9.0,-100.00,ESE,110,12.0,16.0,68,-99.99,,,-99.99,,2013-01-25 14:33:00,
2013-01-25 09:42:00,17.0,11.0,-100.00,ESE,105,8.0,15.0,76,-99.99,,,-99.99,,2013-01-25 14:42:00,
2013-01-25 09:52:00,17.0,12.0,-100.00,ESE,105,6.0,11.0,82,-99.99,,,-99.99,,2013-01-25 14:52:00,
2013-01-25 10:03:00,17.0,13.0,-100.00,East,95,7.0,12.0,85,-99.99,,,-99.99,,2013-01-25 15:03:00,
2013-01-25 10:12:00,17.0,13.0,-100.00,East,95,7.0,12.0,85,-99.99,,,-99.99,,2013-01-25 15:12:00,
2013-01-25 10:22:00,17.0,15.0,-100.00,East,100,5.0,9.0,88,-99.99,,,-99.99,,2013-01-25 15:22:00,
2013-01-25 10:32:00,17.0,15.0,-100.00,SE,130,7.0,9.0,89,-99.99,,,-99.99,,2013-01-25 15:32:00,
2013-01-25 10:42:00,18.0,15.0,-100.00,ESE,110,4.0,10.0,89,-99.99,,,-99.99,,2013-01-25 15:42:00,
2013-01-25 10:53:00,18.0,16.0,-100.00,ESE,115,6.0,7.0,90,-99.99,,,-99.99,,2013-01-25 15:53:00,
2013-01-25 11:03:00,18.0,16.0,-100.00,ESE,115,5.0,7.0,90,-99.99,,,-99.99,,2013-01-25 16:03:00,
2013-01-25 11:12:00,18.0,16.0,-100.00,ESE,115,6.0,7.0,91,-99.99,,,-99.99,,2013-01-25 16:12:00,
2013-01-25 11:23:00,18.0,16.0,-100.00,ESE,105,6.0,9.0,91,-99.99,,,-99.99,,2013-01-25 16:23:00,
2013-01-25 11:33:00,19.0,17.0,-100.00,ESE,120,4.0,9.0,91,-99.99,,,-99.99,,2013-01-25 16:33:00,
2013-01-25 11:43:00,18.0,16.0,-100.00,East,100,7.0,9.0,90,-99.99,,,-99.99,,2013-01-25 16:43:00,
2013-01-25 11:52:00,19.0,16.0,-100.00,East,100,6.0,9.0,90,-99.99,,,-99.99,,2013-01-25 16:52:00,
2013-01-25 12:03:00,18.0,16.0,-100.00,East,90,8.0,11.0,90,-99.99,,,-99.99,,2013-01-25 17:03:00,
2013-01-25 12:12:00,19.0,17.0,-100.00,East,95,6.0,9.0,89,-99.99,,,-99.99,,2013-01-25 17:12:00,
2013-01-25 12:22:00,19.0,17.0,-100.00,East,100,7.0,10.0,88,-99.99,,,-99.99,,2013-01-25 17:22:00,
2013-01-25 12:33:00,19.0,16.0,-100.00,East,100,7.0,12.0,87,-99.99,,,-99.99,,2013-01-25 17:33:00,
2013-01-25 12:43:00,19.0,16.0,-100.00,East,100,9.0,12.0,86,-99.99,,,-99.99,,2013-01-25 17:43:00,
2013-01-25 12:52:00,20.0,16.0,-100.00,East,95,6.0,12.0,84,-99.99,,,-99.99,,2013-01-25 17:52:00,
2013-01-25 13:03:00,20.0,16.0,-100.00,East,95,6.0,12.0,84,-99.99,,,-99.99,,2013-01-25 18:03:00,
2013-01-25 13:12:00,22.0,17.0,-100.00,SE,125,6.0,8.0,82,-99.99,,,-99.99,,2013-01-25 18:12:00,
2013-01-25 13:23:00,22.0,17.0,-100.00,ESE,110,4.0,7.0,79,-99.99,,,-99.99,,2013-01-25 18:23:00,
2013-01-25 13:33:00,23.0,17.0,-100.00,SE,130,6.0,7.0,79,-99.99,,,-99.99,,2013-01-25 18:33:00,
2013-01-25 13:42:00,22.0,17.0,-100.00,ESE,115,6.0,7.0,78,-99.99,,,-99.99,,2013-01-25 18:42:00,
2013-01-25 13:52:00,22.0,17.0,-100.00,ESE,115,4.0,8.0,79,-99.99,,,-99.99,,2013-01-25 18:52:00,
2013-01-25 14:03:00,22.0,17.0,-100.00,ESE,110,5.0,7.0,78,-99.99,,,-99.99,,2013-01-25 19:03:00,
2013-01-25 14:12:00,22.0,16.0,-100.00,SE,125,6.0,12.0,77,-99.99,,,-99.99,,2013-01-25 19:12:00,
2013-01-25 14:22:00,22.0,17.0,-100.00,SE,125,6.0,9.0,77,-99.99,,,-99.99,,2013-01-25 19:22:00,
2013-01-25 14:33:00,22.0,16.0,-100.00,SE,125,7.0,11.0,77,-99.99,,,-99.99,,2013-01-25 19:33:00,
2013-01-25 14:42:00,22.0,16.0,-100.00,SE,130,8.0,9.0,78,-99.99,,,-99.99,,2013-01-25 19:42:00,
2013-01-25 14:52:00,22.0,17.0,-100.00,SSE,150,6.0,9.0,77,-99.99,,,-99.99,,2013-01-25 19:52:00,
2013-01-25 15:03:00,23.0,16.0,-100.00,SE,125,6.0,9.0,76,-99.99,,,-99.99,,2013-01-25 20:03:00,
2013-01-25 15:12:00,22.0,16.0,-100.00,SSE,165,8.0,10.0,76,-99.99,,,-99.99,,2013-01-25 20:12:00,
2013-01-25 15:22:00,22.0,16.0,-100.00,SSE,150,8.0,11.0,75,-99.99,,,-99.99,,2013-01-25 20:22:00,
2013-01-25 15:32:00,22.0,15.0,-100.00,SSE,150,7.0,12.0,76,-99.99,,,-99.99,,2013-01-25 20:32:00,
2013-01-25 15:42:00,22.0,16.0,-100.00,SSE,150,7.0,10.0,76,-99.99,,,-99.99,,2013-01-25 20:42:00,
2013-01-25 15:52:00,22.0,16.0,-100.00,SSE,160,6.0,9.0,76,-99.99,,,-99.99,,2013-01-25 20:52:00,
2013-01-25 16:02:00,22.0,16.0,-100.00,SE,145,6.0,9.0,76,-99.99,,,-99.99,,2013-01-25 21:02:00,
2013-01-25 16:12:00,22.0,16.0,-100.00,SE,140,7.0,9.0,76,-99.99,,,-99.99,,2013-01-25 21:12:00,
2013-01-25 16:23:00,21.0,15.0,-100.00,South,170,6.0,10.0,76,-99.99,,,-99.99,,2013-01-25 21:23:00,
2013-01-25 16:33:00,22.0,16.0,-100.00,SE,145,5.0,7.0,77,-99.99,,,-99.99,,2013-01-25 21:33:00,
2013-01-25 16:42:00,21.0,16.0,-100.00,SSE,150,4.0,7.0,77,-99.99,,,-99.99,,2013-01-25 21:42:00,
2013-01-25 16:52:00,21.0,16.0,-100.00,SSE,165,4.0,6.0,78,-99.99,,,-99.99,,2013-01-25 21:52:00,
2013-01-25 17:03:00,21.0,15.0,-100.00,South,170,4.0,7.0,78,-99.99,,,-99.99,,2013-01-25 22:03:00,
2013-01-25 17:12:00,21.0,16.0,-100.00,SSE,165,5.0,7.0,79,-99.99,,,-99.99,,2013-01-25 22:12:00,
2013-01-25 17:22:00,21.0,16.0,-100.00,South,175,6.0,8.0,79,-99.99,,,-99.99,,2013-01-25 22:22:00,
2013-01-25 17:33:00,21.0,16.0,-100.00,SSE,165,6.0,9.0,80,-99.99,,,-99.99,,2013-01-25 22:33:00,
2013-01-25 17:42:00,21.0,16.0,-100.00,SSE,160,7.0,8.0,80,-99.99,,,-99.99,,2013-01-25 22:42:00,
2013-01-25 17:52:00,21.0,16.0,-100.00,SSE,160,4.0,8.0,81,-99.99,,,-99.99,,2013-01-25 22:52:00,
2013-01-25 18:02:00,20.0,16.0,-100.00,SSE,155,5.0,9.0,82,-99.99,,,-99.99,,2013-01-25 23:02:00,
2013-01-25 18:12:00,20.0,16.0,-100.00,SSE,160,6.0,9.0,83,-99.99,,,-99.99,,2013-01-25 23:12:00,
2013-01-25 18:22:00,20.0,16.0,-100.00,SSE,155,6.0,8.0,83,-99.99,,,-99.99,,2013-01-25 23:22:00,
2013-01-25 18:32:00,20.0,17.0,-100.00,SSE,150,5.0,7.0,83,-99.99,,,-99.99,,2013-01-25 23:32:00,
2013-01-25 18:42:00,20.0,17.0,-100.00,SE,140,6.0,7.0,84,-99.99,,,-99.99,,2013-01-25 23:42:00,
2013-01-25 18:52:00,20.0,17.0,-100.00,SE,140,6.0,7.0,85,-99.99,,,-99.99,,2013-01-25 23:52:00,
2013-01-25 19:02:00,20.0,17.0,-100.00,SSE,155,6.0,7.0,85,-99.99,,,-99.99,,2013-01-26 00:02:00,
2013-01-25 19:11:00,20.0,17.0,-100.00,SSE,155,6.0,7.0,86,-99.99,,,-99.99,,2013-01-26 00:11:00,
2013-01-25 19:22:00,20.0,17.0,-100.00,South,170,5.0,7.0,86,-99.99,,,-99.99,,2013-01-26 00:22:00,
2013-01-25 19:32:00,21.0,17.0,-100.00,South,175,4.0,8.0,87,-99.99,,,-99.99,,2013-01-26 00:32:00,
2013-01-25 19:42:00,21.0,18.0,-100.00,South,185,6.0,7.0,87,-99.99,,,-99.99,,2013-01-26 00:42:00,
2013-01-25 19:52:00,21.0,18.0,-100.00,South,185,6.0,9.0,87,-99.99,,,-99.99,,2013-01-26 00:52:00,
2013-01-25 20:02:00,21.0,18.0,-100.00,South,175,6.0,7.0,87,-99.99,,,-99.99,,2013-01-26 01:02:00,
2013-01-25 20:11:00,21.0,18.0,-100.00,South,190,5.0,7.0,88,-99.99,,,-99.99,,2013-01-26 01:11:00,
2013-01-25 20:22:00,21.0,18.0,-100.00,South,190,6.0,7.0,88,-99.99,,,-99.99,,2013-01-26 01:22:00,
2013-01-25 20:32:00,21.0,18.0,-100.00,South,190,4.0,6.0,88,-99.99,,,-99.99,,2013-01-26 01:32:00,
2013-01-25 20:42:00,21.0,19.0,-100.00,South,180,4.0,7.0,89,-99.99,,,-99.99,,2013-01-26 01:42:00,
2013-01-25 20:52:00,21.0,19.0,-100.00,SSW,205,6.0,7.0,89,-99.99,,,-99.99,,2013-01-26 01:52:00,
2013-01-25 21:02:00,21.0,19.0,-100.00,SSW,205,7.0,8.0,91,-99.99,,,-99.99,,2013-01-26 02:02:00,
2013-01-25 21:11:00,21.0,19.0,-100.00,South,190,8.0,11.0,91,-99.99,,,-99.99,,2013-01-26 02:11:00,
2013-01-25 21:22:00,21.0,19.0,-100.00,SSW,205,7.0,10.0,92,-99.99,,,-99.99,,2013-01-26 02:22:00,
2013-01-25 21:32:00,21.0,20.0,-100.00,SSW,200,7.0,10.0,93,-99.99,,,-99.99,,2013-01-26 02:32:00,
2013-01-25 21:42:00,21.0,20.0,-100.00,SSW,200,9.0,12.0,93,-99.99,,,-99.99,,2013-01-26 02:42:00,
2013-01-25 21:52:00,21.0,20.0,-100.00,South,190,9.0,12.0,94,-99.99,,,-99.99,,2013-01-26 02:52:00,
2013-01-25 22:02:00,21.0,20.0,-100.00,South,190,7.0,12.0,94,-99.99,,,-99.99,,2013-01-26 03:02:00,
2013-01-25 22:11:00,21.0,20.0,-100.00,South,185,6.0,9.0,94,-99.99,,,-99.99,,2013-01-26 03:11:00,
2013-01-25 22:22:00,21.0,20.0,-100.00,South,180,7.0,11.0,94,-99.99,,,-99.99,,2013-01-26 03:22:00,
2013-01-25 22:32:00,21.0,20.0,-100.00,South,185,7.0,12.0,95,-99.99,,,-99.99,,2013-01-26 03:32:00,
2013-01-25 22:43:00,21.0,20.0,-100.00,South,175,6.0,10.0,95,-99.99,,,-99.99,,2013-01-26 03:43:00,
2013-01-25 22:52:00,21.0,20.0,-100.00,South,175,6.0,7.0,95,-99.99,,,-99.99,,2013-01-26 03:52:00,
2013-01-25 23:02:00,21.0,20.0,-100.00,SSE,165,6.0,8.0,95,-99.99,,,-99.99,,2013-01-26 04:02:00,
2013-01-25 23:12:00,21.0,20.0,-100.00,SSE,165,6.0,9.0,95,-99.99,,,-99.99,,2013-01-26 04:12:00,
2013-01-25 23:21:00,21.0,20.0,-100.00,South,170,6.0,9.0,95,-99.99,,,-99.99,,2013-01-26 04:21:00,
2013-01-25 23:32:00,21.0,20.0,-100.00,South,170,6.0,9.0,95,-99.99,,,-99.99,,2013-01-26 04:32:00,
2013-01-25 23:42:00,21.0,20.0,-100.00,SSE,165,6.0,9.0,95,-99.99,,,-99.99,,2013-01-26 04:42:00,
2013-01-25 23:52:00,21.0,20.0,-100.00,South,175,6.0,9.0,95,-99.99,,,-99.99,,2013-01-26 04:52:00,